Flag for France Weather past 2 weeks in Boulogne-Billancourt, France

Now
86 °F

Passing clouds.


Feels Like: 84 °F
Forecast: 62 / 84 °F
Wind: 7 mph from Southwest

Location: Paris-Orly

Current Time: Jul 6, 2015 at 4:29:32 PM

Latest Report: Jul 6, 2015 at 4:00 PM


Visibility: N/A

Pressure: 30.07 "Hg

Humidity: 29%

Dew point: 50 °F

Location of Boulogne-BillancourtLocation

Historic Weather in Boulogne-Billancourt — Graph

°F

Boulogne-Billancourt temperature yesterday

Maximum temperature yesterday: 81 °F (at 1:00 PM)
Minimum temperature yesterday: 66 °F (at 5:00 AM)
Average temperature yesterday: 73 °F

Past Weeks' High & Low Weather Summary

 TemperatureHumidityPressure
High102 °F (Jul 1, 4:30 PM)100% (Jun 23, 3:00 AM)30.24 "Hg (Jun 23, 3:00 AM)
Low46 °F (Jun 23, 5:30 AM)16% (Jun 30, 4:00 PM)29.83 "Hg (Jun 22, 4:00 PM)
Average73 °F55%30.09 "Hg
* Reported Jun 21 3:00 PM — Jul 6 3:30 PM, Boulogne-Billancourt, Weather by CustomWeather, © 2015

Note: Actual official high and low records may vary slightly from our data, if they occured in-between our weather recording intervals... More about our weather records

Advertising

Boulogne-Billancourt weather history for previous 24 hours

 ConditionsComfort  
Time TempWeatherWind HumidityBarometerVisibility
3:30 PM
Mon, Jul 6
84 °FPassing clouds.7 mph31%30.09 "HgN/A
3:00 PM84 °FSunny.5 mph33%30.09 "Hg10 mi
2:30 PM82 °FSunny.7 mph37%30.09 "Hg10 mi
2:00 PM82 °FPassing clouds.8 mph37%30.12 "HgN/A
1:30 PM79 °FPassing clouds.7 mph42%30.12 "HgN/A
1:00 PM79 °FPassing clouds.7 mph42%30.15 "HgN/A
12:30 PM77 °FSunny.6 mph44%30.15 "Hg10 mi
12:00 PM75 °FScattered clouds.5 mph44%30.15 "HgN/A
11:30 AM75 °FPassing clouds.6 mph47%30.15 "HgN/A
11:00 AM73 °FPassing clouds.8 mph50%30.18 "HgN/A
10:30 AM72 °FPassing clouds.10 mph53%30.18 "HgN/A
10:00 AM70 °FPassing clouds.8 mph60%30.18 "HgN/A
9:30 AM70 °FPassing clouds.6 mph60%30.18 "HgN/A
9:00 AM68 °FPassing clouds.5 mph64%30.18 "HgN/A
8:30 AM66 °FSunny.3 mph68%30.21 "Hg10 mi
8:00 AM64 °FPassing clouds.1 mph73%30.18 "HgN/A
7:30 AM61 °FPassing clouds.2 mph83%30.18 "HgN/A
7:00 AM59 °FPassing clouds.2 mph82%30.18 "HgN/A
6:30 AM57 °FClear.3 mph82%30.18 "Hg10 mi
6:00 AM59 °FClear.No wind82%30.18 "Hg10 mi
5:30 AM59 °FClear.No wind82%30.18 "Hg10 mi
5:00 AM61 °FClear.No wind77%30.18 "Hg10 mi
4:30 AM61 °FClear.2 mph77%30.18 "Hg10 mi
4:00 AM63 °FClear.3 mph73%30.18 "Hg10 mi
3:30 AM63 °FClear.2 mph73%30.18 "Hg10 mi
3:00 AM61 °FClear.2 mph77%30.18 "Hg10 mi
2:30 AM61 °FClear.No wind83%30.18 "Hg10 mi
2:00 AM61 °FClear.2 mph77%30.18 "Hg10 mi
1:30 AM61 °FClear.No wind77%30.18 "Hg10 mi
1:00 AM61 °FClear.1 mph77%30.18 "Hg10 mi
12:30 AM64 °FClear.2 mph68%30.18 "Hg10 mi
12:00 AM64 °FClear.5 mph68%30.15 "Hg10 mi
11:30 PM
Sun, Jul 5
66 °FClear.5 mph60%30.15 "Hg10 mi
11:00 PM68 °FClear.6 mph60%30.15 "Hg10 mi
10:30 PM68 °FSunny.7 mph60%30.12 "Hg10 mi
10:00 PM70 °FPassing clouds.8 mph57%30.12 "HgN/A
9:30 PM70 °FSunny.12 mph64%30.09 "Hg10 mi
9:00 PM72 °FSunny.13 mph61%30.09 "Hg10 mi
8:30 PM75 °FSunny.15 mph54%30.09 "Hg10 mi
8:00 PM79 °FPassing clouds.14 mph42%30.07 "HgN/A
7:30 PM79 °FSunny.14 mph39%30.07 "Hg10 mi
7:00 PM79 °FPassing clouds.12 mph45%30.07 "HgN/A
6:30 PM79 °FPassing clouds.7 mph45%30.07 "HgN/A
6:00 PM77 °FPassing clouds.5 mph47%30.07 "HgN/A
5:30 PM77 °FSunny.8 mph47%30.07 "Hg10 mi
5:00 PM73 °FPartly sunny.7 mph57%30.07 "HgN/A
4:30 PM75 °FPartly sunny.6 mph54%30.07 "HgN/A
4:00 PM73 °FBroken clouds.9 mph61%30.07 "HgN/A
Weather by CustomWeather, © 2015

See weather overviewHow to use our weather pages